Simultaneous Nadir Overpasses (SNOs) Predictions

Prediction of SNOs between AQUA and NOAA-19 Satellite Orbit:

Table of predicted SNOs for the next 14.0 days since TLE Epoch: 4/26/2013
Index Date (AQUA) Time (AQUA) Lat,Lon (AQUA) SZA (AQUA ) Date (NOAA-19) Time (NOAA-19) Lat,Lon (NOAA-19) SZA (NOAA-19 ) Distance(km) Time Diff (sec)
1 04/27/2013 06:26:49 48.37, 98.02 36.57 04/27/2013 06:26:10 48.30, 97.72 36.38 23.65 39
2 04/27/2013 07:15:34 -46.09, -93.44 145.26 04/27/2013 07:16:27 -45.95, -94.05 145.50 48.87 53
3 04/29/2013 11:10:59 47.97, 27.12 35.61 04/29/2013 11:10:26 47.92, 26.80 35.44 23.79 33
4 04/29/2013 11:59:51 -46.09,-164.51 145.88 04/29/2013 12:00:49 -45.95,-165.12 146.12 49.67 58
5 05/01/2013 15:55:10 47.64, -43.82 34.74 05/01/2013 15:54:43 47.60, -44.14 34.58 24.26 27
6 05/01/2013 16:44:07 -46.06, 124.43 146.50 05/01/2013 16:45:11 -45.94, 123.80 146.73 50.35 64
7 05/03/2013 20:39:20 47.27,-114.75 33.86 05/03/2013 20:38:59 47.23,-115.07 33.69 24.63 21
8 05/03/2013 21:28:24 -46.11, 53.35 147.06 05/03/2013 21:29:34 -46.00, 52.70 147.27 51.35 70
9 05/06/2013 01:23:30 46.93, 174.32 33.02 05/06/2013 01:23:15 46.86, 174.00 32.84 25.11 15
10 05/08/2013 05:36:26 -65.45, 138.24 88.68 05/08/2013 05:35:14 -65.09, 140.19 88.88 99.02 72
11 05/08/2013 06:07:38 46.48, 103.43 32.12 05/08/2013 06:07:30 46.44, 103.09 31.97 25.71 8




NCC Satellite Simultaneous Nadir Overpasses (SNOs) Prediction Service
